Weather in Zabolotiv

Ukraine / Ivano-Frankovsk District     48˚28′31″N   25˚17′03″E
temp.,
°C
wind,
m/s
gust,
m/s
humid.,
%
clouds,
%
prec.,
mm/h
press.,
hPa
HPBL,
m
2 december, wed
wed223:00−4˚ese24810 0.0 1028114
02:00−5˚ese22850 0.0 102749
05:00−5˚ese12870 0.0 102630
08:00−6˚ese12900 0.0 102724
11:00−2˚ese23690 0.0 1026317
14:00ese35660 0.0 1024521
17:00−3˚e35870 0.0 1023123
20:00−4˚ese37930 0.0 1023184
3 december, thu
thu323:00−4˚ese37956 0.0 1023176
02:00−5˚ese369515 0.0 1022171
05:00−5˚ese36960 0.0 1021147
08:00−5˚ese36961 0.0 1021154
11:00−1˚ese587726 0.0 1019353
14:00+1˚ese696836 0.0 1017448
17:00−1˚ese6118683 0.0 1016307
20:00−1˚ese5118972 0.0 1016290
4 december, fri
fri423:00−2˚ese511941 0.0 1015302
02:00−2˚ese6119230 0.0 1014317
05:00−2˚ese511936 0.0 1013312
08:00−2˚ese510933 0.0 1012271
11:00+4˚se712660 0.0 1011462
14:00+7˚se712630 0.0 1010436
17:00+3˚se49865 0.0 1011168
20:00+2˚se348610 0.0 101360
5 december, sat
sat523:00+2˚se35884 0.0 101382
02:00+2˚ese47908 0.0 1014139
05:00+3˚se48910 0.0 1014167
08:00+3˚se49912 0.0 1015173
11:00+8˚se610770 0.0 1015386
14:00+11˚se712730 0.0 1015505
17:00+8˚se714870 0.0 1016378
20:00+7˚se714889 0.0 1017415
6 december, sun
sun623:00+7˚se715896 0.0 1017491
02:00+7˚se7158816 0.0 1017512
05:00+7˚se8168676 0.0 1016570
08:00+7˚se10178367 0.0 1016720
11:00+8˚se12177553 0.0 1015924
14:00+9˚se13187238 0.0 1014942
17:00+7˚se12187860 0.0 1014902
20:00+7˚se12188056 0.0 1014870